Anniston, AL

6:30 AM CST on November 15, 2019 (GMT -0600)
Anniston Metro

Weather History for KANB - September, 2019

Change the Weather History Date:

Wednesday, September 11, 2019

  Actual Average Record
Temperature  
Mean Temperature 84 °F 75 °F  
Max Temperature 95 °F 86 °F 97 °F (2002)
Min Temperature 72 °F 65 °F 47 °F (1976)
Degree Days  
Heating Degree Days 0    
Month to date heating degree days  
Since 1 July heating degree days  
Cooling Degree Days 19    
Month to date cooling degree days 177  
Year to date cooling degree days 1891  
Growing Degree Days 32 (Base 50)    
Moisture  
Dew Point 67 °F    
Average Humidity 60    
Maximum Humidity 84    
Minimum Humidity 36    
Precipitation  
Precipitation 0.00 in 0.10 in 2.92 in (2017)
Month to date precipitation T 1.11  
Year to date precipitation 39.17 36.03  
Sea Level Pressure  
Sea Level Pressure 30.17 in    
Wind  
Wind Speed 6 mph (ENE)    
Max Wind Speed 10 mph    
Max Gust Speed 12 mph    
Visibility 10 miles    
Events      
T = Trace of Precipitation, MM = Missing Value Source: NWS Daily Summary

Daily Weather History Graph

Daily Weather History Graph

Search for Another Location

Airport or City:

Astronomy

Sep. 11, 2019 Rise Set
Actual Time 6:24 AM CDT 6:55 PM CDT
Civil Twilight 5:58 AM CDT 7:20 PM CDT
Nautical Twilight 5:29 AM CDT 7:50 PM CDT
Astronomical Twilight 4:59 AM CDT 8:19 PM CDT
Moon 5:58 PM CDT (9/11) 3:56 AM CDT (9/11)
Length of Visible Light 13h 21m
Length of Day
12h 31m
Waxing Gibbous, 95% of the Moon is Illuminated
Sep 11
Waxing Gibbous
Sep 13
Full
Sep 21
Last Quarter
Sep 28
New
Oct 5
First Quarter

Hourly Weather History & Observations

Time (CDT) Temp. Heat Index Dew Point Humidity Pressure Visibility Wind Dir Wind Speed Gust Speed Precip Events Conditions
12:53 AM 75.9 °F - 66.0 °F 71% 30.19 in 10.0 mi NE 4.6 mph - N/A   Clear
1:53 AM 75.0 °F - 66.0 °F 73% 30.19 in 10.0 mi NE 8.1 mph - N/A   Clear
2:53 AM 73.9 °F - 66.0 °F 76% 30.19 in 10.0 mi ENE 6.9 mph - N/A   Clear
3:53 AM 73.9 °F - 66.0 °F 76% 30.19 in 10.0 mi NE 5.8 mph - N/A   Clear
4:53 AM 73.0 °F - 66.0 °F 79% 30.21 in 10.0 mi ENE 6.9 mph - N/A   Clear
5:53 AM 73.0 °F - 66.0 °F 79% 30.22 in 10.0 mi ENE 4.6 mph - N/A   Clear
6:53 AM 72.0 °F - 66.9 °F 84% 30.25 in 10.0 mi ENE 4.6 mph - N/A   Clear
7:53 AM 75.0 °F - 66.9 °F 76% 30.25 in 10.0 mi ENE 8.1 mph - N/A   Clear
8:53 AM 79.0 °F - 68.0 °F 69% 30.26 in 10.0 mi ENE 6.9 mph - N/A   Clear
10:53 AM 87.1 °F 92.8 °F 71.1 °F 59% 30.24 in 10.0 mi NE 4.6 mph - N/A   Clear
11:53 AM 87.1 °F 92.0 °F 70.0 °F 57% 30.22 in 10.0 mi WSW 5.8 mph - N/A   Scattered Clouds
12:53 PM 91.0 °F 96.6 °F 70.0 °F 50% 30.20 in 10.0 mi SW 4.6 mph - N/A   Scattered Clouds
1:53 PM 91.9 °F 95.9 °F 68.0 °F 45% 30.16 in 10.0 mi WSW 3.5 mph - N/A   Partly Cloudy
2:53 PM 93.9 °F 95.6 °F 64.0 °F 37% 30.13 in 10.0 mi SE 5.8 mph - N/A   Partly Cloudy
3:53 PM 93.9 °F 94.8 °F 62.1 °F 35% 30.12 in 10.0 mi NE 3.5 mph - N/A   Clear
4:53 PM 93.0 °F 95.9 °F 66.0 °F 41% 30.11 in 10.0 mi East 5.8 mph - N/A   Clear
5:53 PM 88.0 °F 92.9 °F 70.0 °F 55% 30.11 in 10.0 mi Calm Calm - N/A   Clear
6:53 PM 81.0 °F 84.1 °F 69.1 °F 67% 30.11 in 10.0 mi Calm Calm - N/A   Scattered Clouds
7:53 PM 84.0 °F 86.5 °F 66.9 °F 56% 30.12 in 10.0 mi NNE 4.6 mph - N/A   Partly Cloudy
8:53 PM 81.0 °F 83.8 °F 68.0 °F 65% 30.13 in 10.0 mi NNE 3.5 mph - N/A   Clear
9:53 PM 73.9 °F - 68.0 °F 82% 30.14 in 10.0 mi Calm Calm - N/A   Clear
10:53 PM 73.9 °F - 69.1 °F 85% 30.14 in 10.0 mi Calm Calm - N/A   Clear
11:53 PM 73.0 °F - 69.1 °F 87% 30.13 in 10.0 mi Calm Calm - N/A   Clear